Location: Frankfurt+(oder)
(51.7984°N, 12.2168°E)
Time: 18:50:41
(UTC+02:00)

ISS - Visible Passes

Search period start: 26 March 2017 00:00
Search period end: 05 April 2017 01:00
Orbit: 399 x 409 km, 51.6° (Epoch: 27 March)

Date Brightness Start Highest point End Pass type
(mag) Time Alt. Az. Time Alt. Az. Time Alt. Az.
28 Mar -2.2 20:59:44 10° SSW 21:01:52 19° SSE 21:01:52 19° SSE visible
29 Mar -2.9 21:42:44 10° SW 21:45:00 35° SSW 21:45:00 35° SSW visible
30 Mar -3.0 20:50:37 10° SW 20:53:34 32° SSE 20:55:12 20° ESE visible
30 Mar -1.7 22:26:33 10° WSW 22:27:53 22° WSW 22:27:53 22° WSW visible
31 Mar -3.9 21:34:09 10° WSW 21:37:24 68° SSE 21:37:53 56° ESE visible
01 Apr -3.6 20:41:50 10° WSW 20:45:01 52° SSE 20:47:46 13° E visible
01 Apr -2.8 22:18:07 10° W 22:20:25 42° W 22:20:25 42° W visible
02 Apr -3.9 21:25:40 10° W 21:28:57 85° S 21:30:11 35° E visible
02 Apr -1.0 23:02:08 10° W 23:02:50 15° W 23:02:50 15° W visible
03 Apr -3.8 20:33:13 10° WSW 20:36:29 73° SSE 20:39:46 10° E visible
03 Apr -3.5 22:09:39 10° W 22:12:30 64° W 22:12:30 64° W visible
04 Apr -3.9 21:17:11 10° W 21:20:27 90° S 21:22:07 27° E visible
04 Apr -1.4 22:53:39 10° W 22:54:46 19° W 22:54:46 19° W visible
